Content
SEND FEEDBACK

Daily
Averages
Monthly
Summary
United States of America

VALDEZ, ALASKA


Home > North America > United States > Alaska
Elevation: 33 feet     Latitude: 61 08N     Longitude: 146 21W

WEATHER
 
SELECT A DAY
Number of Records: 462,392;   Date Range: 1/2/95 - 12/17/14
 
SHARE

PRINT THIS DATA

[ ← Previous Day ]
WEATHER ALMANAC - JANUARY 31, 2013
[ Next Day → ]
[ °C ]   °F
Weather ElementAverageHighLow
Temperature32.6 °F33.8 °F (6:16 am)28.4 °F (12:36 am)
Dewpoint31.3 °F33.8 °F (3:36 pm)28.4 °F (12:36 am)
Humidity95 %100 % (12:36 am)87 % (6:16 am)
Barometer29.88 in30.00 in (11:56 pm)29.78 in (4:56 am)
Weather ElementAverage
Wind DirectionN (1.1 °)

Weather ElementTotal
Precipitation1.63 in
Heating Degree Days33.9 (Base 65)
Averaged from 71 records on January 31, 2013
WEATHER CONDITIONS BREAKOUT
WIND DIRECTION BREAKOUT
WEATHER BY HOUR - JANUARY 31, 2013
[ °C ]   °F
Local TimeTemperatureDewpointHumidityBarometerVisibilityWind DirectionWind SpeedGust SpeedPrecipitationEventsConditions
12:36 AM28.4 °F28.4 °F100 %29.79 in2.0 miCalmOvercast
12:56 AM30.2 °F30.2 °F100 %29.79 in1.8 miCalmOvercast
1:16 AM30.2 °F28.4 °F93 %29.79 in2.0 miCalm0.01 inOvercast
1:36 AM30.2 °F30.2 °F100 %29.79 in2.5 miCalm0.02 inOvercast
1:56 AM30.2 °F28.4 °F93 %29.79 in2.5 miCalm0.03 inOvercast
2:16 AM30.2 °F28.4 °F93 %29.79 in2.0 miCalm0.03 inOvercast
2:36 AM30.2 °F30.2 °F100 %29.80 in1.8 miCalm0.05 inOvercast
2:56 AM30.2 °F30.2 °F100 %29.79 in2.0 miCalm0.07 inOvercast
3:16 AM32.0 °F32.0 °F100 %29.79 in2.0 miCalm0.02 inOvercast
3:36 AM32.0 °F32.0 °F100 %29.79 in1.8 miCalm0.04 inOvercast
3:56 AM32.0 °F30.2 °F93 %29.79 in1.2 miCalm0.07 inOvercast
4:16 AM32.0 °F32.0 °F100 %29.79 in1.5 miCalm0.03 inOvercast
4:36 AM32.0 °F32.0 °F100 %29.79 in0.5 miCalm0.07 inOvercast
4:56 AM32.0 °F30.2 °F93 %29.78 in0.5 miCalm0.10 inOvercast
5:16 AM32.0 °F30.2 °F93 %29.79 in1.0 miCalm0.02 inOvercast
5:36 AM32.0 °F30.2 °F93 %29.79 in1.5 miCalm0.06 inOvercast
5:56 AM32.0 °F30.2 °F93 %29.79 in1.0 miCalm0.10 inOvercast
6:16 AM33.8 °F30.2 °F87 %29.79 in1.0 miCalm0.03 inOvercast
6:36 AM32.0 °F32.0 °F100 %29.79 in1.0 miCalm0.07 inOvercast
6:56 AM32.0 °F30.2 °F93 %29.79 in2.5 miCalm0.10 inOvercast
7:16 AM33.8 °F32.0 °F93 %29.80 in2.5 miCalm0.04 inOvercast
7:36 AM33.8 °F30.2 °F87 %29.80 in2.5 miCalm0.07 inOvercast
7:56 AM32.0 °F30.2 °F93 %29.80 in1.5 miCalm0.11 inOvercast
8:16 AM32.0 °F30.2 °F93 %29.81 in1.5 miCalm0.04 inOvercast
8:36 AM32.0 °F30.2 °F93 %29.81 in1.5 miCalm0.08 inOvercast
8:56 AM32.0 °F30.2 °F93 %29.81 in0.8 miCalm0.11 inOvercast
9:16 AM32.0 °F30.2 °F93 %29.82 in0.8 miCalm0.04 inOvercast
9:36 AM33.8 °F32.0 °F93 %29.83 in0.8 miCalm0.07 inOvercast
9:56 AM30.2 °F28.4 °F93 %29.83 in0.5 miCalm0.09 inOvercast
10:16 AM32.0 °F28.4 °F87 %29.84 in0.5 miCalmOvercast
10:36 AM33.8 °F30.2 °F87 %29.85 in0.5 miCalmOvercast
10:56 AM33.8 °F30.2 °F87 %29.85 in2.5 miCalmOvercast
11:16 AM32.0 °F30.2 °F93 %29.86 in2.5 miCalmOvercast
11:36 AM33.8 °F32.0 °F93 %29.87 in2.5 miCalmOvercast
11:56 AM32.0 °F30.2 °F93 %29.87 in5.0 miCalm0.02 inMostly Cloudy
12:16 PM33.8 °F30.2 °F87 %29.87 in5.0 miCalmMostly Cloudy
12:36 PM32.0 °F30.2 °F93 %29.88 in5.0 miCalm0.01 inMostly Cloudy
12:56 PM32.0 °F30.2 °F93 %29.88 in1.5 miCalm0.01 inOvercast
1:16 PM33.8 °F32.0 °F93 %29.88 in1.5 miCalmOvercast
1:36 PM33.8 °F30.2 °F87 %29.89 in1.5 miCalm0.01 inOvercast
1:56 PM33.8 °F32.0 °F93 %29.90 in7.0 miCalm0.01 inMostly Cloudy
2:16 PM33.8 °F32.0 °F93 %29.90 in7.0 miCalmMostly Cloudy
2:36 PM33.8 °F30.2 °F87 %29.90 in7.0 miCalmMostly Cloudy
2:56 PM33.8 °F32.0 °F93 %29.91 in0.5 miCalmOvercast
3:16 PM33.8 °F32.0 °F93 %29.91 in0.5 miCalmOvercast
3:36 PM33.8 °F33.8 °F100 %29.92 in1.0 miCalmOvercast
3:56 PM33.8 °F32.0 °F93 %29.92 in7.0 miCalmOvercast
4:16 PM33.8 °F32.0 °F93 %29.93 in7.0 miCalmOvercast
4:36 PM33.8 °F33.8 °F100 %29.94 in7.0 miCalmOvercast
4:56 PM33.8 °F33.8 °F100 %29.94 in7.0 miCalmOvercast
5:16 PM33.8 °F30.2 °F87 %29.94 in7.0 miCalmOvercast
5:36 PM33.8 °F33.8 °F100 %29.94 in7.0 miCalmOvercast
5:56 PM33.8 °F32.0 °F93 %29.94 in7.0 miCalmOvercast
6:16 PM33.8 °F33.8 °F100 %29.94 in0.5 miCalm
6:36 PM33.8 °F33.8 °F100 %29.95 in0.5 miCalm
6:56 PM32.0 °F30.2 °F93 %29.95 in0.5 miCalmOvercast
7:16 PM33.8 °F33.8 °F100 %29.96 in0.5 miCalmOvercast
7:36 PM33.8 °F33.8 °F100 %29.96 in0.5 miCalmOvercast
7:56 PM33.8 °F33.8 °F100 %29.96 in4.0 miCalmOvercast
8:16 PM33.8 °F33.8 °F100 %29.97 in4.0 miCalmOvercast
8:36 PM33.8 °F33.8 °F100 %29.97 in4.0 miCalmOvercast
8:56 PM33.8 °F32.0 °F93 %29.97 in4.0 miCalmOvercast
9:16 PM33.8 °F33.8 °F100 %29.98 in4.0 miCalmOvercast
9:36 PM33.8 °F32.0 °F93 %29.98 in4.0 miCalmOvercast
9:56 PM33.8 °F33.8 °F100 %29.99 in4.0 miCalmOvercast
10:16 PM32.0 °F32.0 °F100 %29.99 in1.0 miCalmOvercast
10:36 PM32.0 °F32.0 °F100 %29.99 in1.0 miCalmOvercast
10:56 PM32.0 °F32.0 °F100 %29.99 in1.8 miCalmOvercast
11:16 PM32.0 °F32.0 °F100 %29.99 in2.5 miEast (80°)3.5 mphOvercast
11:36 PM32.0 °F30.2 °F93 %29.99 in5.0 miCalmOvercast
11:56 PM33.8 °F33.8 °F100 %30.00 in6.0 miCalmOvercast
Hourly data recorded from PAVD, located miles away from Valdez, Alaska







STORIES FROM OUR PARTNERS